Flag for USA Past Weather in Furnace Creek (Death Valley), California, USA — Yesterday and Last 2 Weeks

Now
49 °F

Passing clouds.


Feels Like: 43 °F
Forecast: 44 / 63 °F
Wind: 15 mph from Southwest

Location: Desert Rock Airport

Current Time: Jan 21, 2017 at 3:37:53 pm

Latest Report: Jan 21, 2017 at 2:55 pm


Visibility: 10 mi

Pressure: 29.79 "Hg

Humidity: 48%

Dew Point: 30 °F

Location of Furnace Creek (Death Valley)Location

Past Weather in Furnace Creek (Death Valley) — Graph

°F

Furnace Creek (Death Valley) Temperature Yesterday

Maximum temperature yesterday: 45 °F (at 1:55 pm)
Minimum temperature yesterday: 36 °F (at 2:55 am)
Average temperature yesterday: 41 °F

High & Low Weather Summary for the Past Weeks

 TemperatureHumidityPressure
High61 °F (Jan 8, 4:55 pm)96% (Jan 13, 12:55 am)30.30 "Hg (Jan 13, 12:55 am)
Low27 °F (Jan 18, 5:55 am)17% (Jan 6, 2:55 pm)29.24 "Hg (Jan 20, 7:55 pm)
Average45 °F59%29.91 "Hg
* Reported Jan 6 1:55 pm — Jan 21 1:55 pm, Furnace Creek (Death Valley), Weather by CustomWeather, © 2017

Note: Actual official high and low records may vary slightly from our data, if they occured in-between our weather recording intervals... More about our weather records

Advertising

Furnace Creek (Death Valley) Weather History for the Previous 24 Hours

Scroll right to see more
 ConditionsComfort  
Time TempWeatherWind HumidityBarometerVisibility
1:55 pm
Sat, Jan 21
49 °FSunny.14 mph48%29.75 "Hg10 mi
12:55 pm48 °FScattered clouds.12 mph54%29.73 "Hg10 mi
11:55 am47 °FSunny.12 mph56%29.73 "Hg10 mi
10:55 am45 °FSunny.12 mph63%29.72 "Hg10 mi
9:55 am43 °FSunny.14 mph65%29.70 "Hg10 mi
8:55 am41 °FSunny.13 mph70%29.63 "Hg10 mi
7:55 am38 °FSunny.8 mph79%29.59 "Hg10 mi
6:55 am34 °FScattered clouds.6 mph85%29.55 "Hg10 mi
5:55 am36 °FPassing clouds.10 mph82%29.49 "Hg10 mi
4:55 am37 °FPassing clouds.8 mph79%29.44 "Hg10 mi
3:55 am39 °FPassing clouds.12 mph76%29.40 "Hg10 mi
2:55 am40 °FOvercast.16 mph77%29.37 "Hg10 mi
1:55 am40 °FOvercast.13 mph80%29.34 "Hg10 mi
12:55 am41 °FOvercast.21 mph74%29.31 "Hg10 mi
11:55 pm
Fri, Jan 20
40 °FOvercast.14 mph83%29.30 "Hg10 mi
10:55 pm41 °FOvercast.8 mph76%29.28 "Hg10 mi
9:55 pm41 °FPassing clouds.13 mph80%29.28 "Hg10 mi
8:55 pm43 °FOvercast.15 mph74%29.26 "Hg10 mi
7:55 pm43 °FOvercast.10 mph76%29.24 "Hg10 mi
7:25 pm42 °FOvercast.13 mph82%29.29 "Hg10 mi
6:55 pm43 °FMostly cloudy.15 mph79%29.26 "Hg10 mi
5:55 pm42 °FMostly cloudy.15 mph79%29.25 "Hg10 mi
4:55 pm42 °FMore clouds than sun.7 mph85%29.26 "Hg10 mi
3:55 pm41 °FCloudy.6 mph89%29.27 "Hg10 mi
Weather by CustomWeather, © 2017

See weather overviewHow to use our weather pages